Skip Page Navigation
NASA JPL Caltech
NASA Logo - Jet Propulsion Laboratory + View the NASA Portal
+ Center for Near-Earth Object Studies
JPL Home Earth Solar System Stars & Galaxies Technology
JPL Solar System Dynamics
BODIES ORBITS EPHEMERIDES TOOLS PHYSICAL DATA DISCOVERY FAQ SITE MAP
IMPORTANT: The SSD Announcement email list is now available. Major changes are coming in the near future, including possible hostname and/or URL changes. To be notified of such changes, subscribe to this email list.

Please visit this page for more details.


JPL Small-Body Database Browser
Search: [ help ]  
413357 (2003 YY77)
Classification: Main-belt Asteroid          SPK-ID: 2413357
Ephemeris | Orbit Diagram | Orbital Elements | Mission Design | Physical Parameters | Discovery Circumstances ]

[ show orbit diagram ]
Orbital Elements at Epoch 2458600.5 (2019-Apr-27.0) TDB
Reference: JPL 13 (heliocentric ecliptic J2000)
 Element Value Uncertainty (1-sigma)   Units 
e .1592752889624676 5.9545e-08  
a 2.415513188324181 2.2555e-08 au
q 2.030781627261196 1.4968e-07 au
i 7.901416264669667 7.8649e-06 deg
node 82.91880779652017 5.2566e-05 deg
peri 22.2236481713158 6.0904e-05 deg
M 26.27495001171118 3.0862e-05 deg
tp 2458500.418929038652
(2019-Jan-16.91892904)
0.00011688 TDB
period 1371.237072954526
3.75
1.9206e-05
5.258e-08
d
yr
n .262536659123669 3.6772e-09 deg/d
Q 2.800244749387167 2.6147e-08 au
  Orbit Determination Parameters
   # obs. used (total)      195  
   data-arc span      5507 days (15.08 yr)  
   first obs. used      2003-12-18  
   last obs. used      2019-01-15  
   planetary ephem.      DE431  
   SB-pert. ephem.      SB431-N16  
   condition code      0  
   norm. resid. RMS      .6221  
   source      ORB  
   producer      Otto Matic  
   solution date      2019-Jul-13 18:08:52  

Additional Information
 Earth MOID = 1.05014 au 
 Jupiter MOID = 2.35168 au 
 T_jup = 3.487 
[ show covariance matrix ]

Ephemeris | Orbit Diagram | Orbital Elements | Mission Design | Physical Parameters | Discovery Circumstances ]

Physical Parameter Table
Parameter Symbol Value Units Sigma Reference Notes
absolute magnitude H 17.1   n/a MPO419032  

413357 (2003 YY77)          Discovered 2003-Dec-18 by LINEAR at Socorro
Reference: Last Updated: 2014-11-10

Alternate Designations
 2003 YY77 = 2008 DD54 
Ephemeris | Orbit Diagram | Orbital Elements | Mission Design | Physical Parameters | Discovery Circumstances ]
ABOUT SSD CREDITS/AWARDS PRIVACY/COPYRIGHT GLOSSARY LINKS
FirstGov 2019-Dec-10 08:09 UT
(server date/time)  
NASA Home Page
Site Manager:   Ryan S. Park
Webmaster  Alan B. Chamberlin